Location: Hohenfelde
(53.8441°N, 9.6220°E)
Time: 12:21:56
(UTC+00:00)

Cosmos 1184 Rocket - Pass Details

Date: 14 July 2020
Orbit: 408 x 422 km, 81.2° (Epoch: 12 August)

Event Time Altitude Azimuth Distance (km) Brightness Sun altitude
Exits shadow 00:50:01 23° 202° (SSW) 949 3.9 -12.4°
Maximum altitude 00:51:56 74° 285° (WNW) 441 2.8 -12.4°
Drops below altitude 10° 00:55:13 10° 10° (N) 1,511 7.0 -12.2°
Sets 00:57:16 0° 13° (NNE) 2,383 8.5 -12.1°
